Regional Weather Roundup
Issued by NWS

Home | Current Version | Previous Version | Graphics & Text | Print | Product List | Glossary On
Versions: 1 2 3 4 5 6 7 8 9 10 11 12 13 14 15 16 17 18 19 20 21 22 23 24 25 26 27
000
ASUS45 KBOI 200310
RWRID

IDAHO REGIONAL WEATHER ROUNDUP
NATIONAL WEATHER SERVICE BOISE ID
900 PM MDT TUE SEP 19 2017

NOTE: "FAIR" INDICATES FEW OR NO CLOUDS BELOW 12000 FEET
WITH NO SIGNIFICANT WEATHER AND/OR OBSTRUCTIONS TO VISIBILITY

IDZ012-014-200400-
SOUTHWEST IDAHO


CITY           SKY/WX    TMP DP  RH WIND       PRES   REMARKS
BOISE          MOCLDY    53  38  56 SE8       29.88S
CALDWELL       MOCLDY    53  41  63 SE3       29.87S
MOUNTAIN HOME  PTCLDY    54  39  57 NE3       29.90R
$$

IDZ016-017-200400-
SOUTHCENTRAL IDAHO


CITY           SKY/WX    TMP DP  RH WIND       PRES   REMARKS
BURLEY         CLEAR     42  35  76 SW5       29.92R
JEROME         CLEAR     46  37  71 SE7       29.93R
TWIN FALLS     PTCLDY    39  35  86 S8        29.94R WCI  33
$$

IDZ019>023-200400-
SOUTHEAST IDAHO


CITY           SKY/WX    TMP DP  RH WIND       PRES   REMARKS
IDAHO FALLS    CLEAR     45  35  68 S18       29.89R
POCATELLO      CLEAR     45  35  68 S15       29.93S
REXBURG        CLEAR     45  30  55 SW15G25   29.86R
$$

IDZ006-010-011-018-031-032-200400-
CENTRAL IDAHO MOUNTAINS


CITY           SKY/WX    TMP DP  RH WIND       PRES   REMARKS
MCCALL         CLOUDY    37  35  92 E5        29.84F WCI  33
HAILEY         PTCLDY    45  30  57 NW8       29.93R
STANLEY          N/A     34  32  92 S6        29.92R WCI  29
SALMON         CLOUDY    43  37  79 CALM      29.84R
CHALLIS        MOCLDY    40  34  79 S7        29.86R
$$

IDZ002-004-006-007-026-200400-
NORTHERN IDAHO


CITY           SKY/WX    TMP DP  RH WIND       PRES   REMARKS
LEWISTON       CLOUDY    56  41  57 S17       29.76S
LOWELL           N/A     48  45  89 CALM      29.83S
COEUR D`ALENE  MOCLDY    43  41  93 S6        29.73S
MULLAN PASS    SNOW      31  29  92 VRB6      29.71S VSB 1/2 WCI  25
$$




USA.gov is the U.S. government's official web portal to all federal, state and local government web resources and services.